Location: Killam
(52.7910°N, 111.8608°W)
Time: 17:07:18
(UTC+00:00)

Vanguard 2 Rocket - Pass Details

Date: 21 February 2026
Orbit: 553 x 3286 km, 32.9° (Epoch: 11 March)

Event Time Altitude Azimuth Distance (km) Brightness Sun altitude
Rises 18:38:40 0° 222° (SW) 7,184 11.9 25.5°
Reaches altitude 10° 18:44:24 10° 213° (SSW) 6,227 11.8 25.7°
Maximum altitude 18:59:49 30° 162° (SSE) 4,403 13.2 26.3°
Drops below altitude 10° 19:12:17 10° 110° (ESE) 5,035 11.1 26.6°
Sets 19:16:15 0° 100° (E) 5,677 11.2 26.6°
